星链-3564 (STARLINK-3564 )

导读 | 豆包AI

STARLINK-3564是美国SpaceX公司星链星座的一员,于2022年4月21日发射升空,属于星链低轨宽带星座组网卫星。该卫星运行在近地轨道,依托星链星座的规模化部署,可为全球范围尤其是偏远缺网地区提供高速卫星互联网接入服务。卫星配备霍尔推进器,具备自主避撞能力,寿命末期会主动离轨再入大气层销毁,单星设计寿命约5-7年,是星链全球通信网络建设的重要组成部分。

基本信息
目录编号:
52302
目录名称:
STARLINK-3564
国际标识:
2022-041AT
轨道中心:
EARTH
卫星名称:
星链-3564
卫星全名:
星链-3564 (STARLINK-3564 )
卫星状态:
在轨 (已飞行1423 天)
发射日期:
2022-04-21 UTC
国别 :
美国 (US)
星等 :
--
轨道信息
数据来源 国际轨道数据
星历时间: 2026-03-14T18:00:14+0800
13小时前
查看轨道信息
半长轴: 6917.902km
偏心率: 0.0001435
轨道倾角: 53.217°
近地点辐角 80.077°
升交点赤经 67.898°
平近点角 280.039°
近地点: 538.772km
远地点: 540.758km
周期: 95.438分钟
每日圈数: 15.08833
详细信息
固有亮度:
5
最大亮度:
2.5
卫星平台:
Starlink v1.5
覆盖范围:
全球
运营商:
太空探索技术公司
运营商所在国:
美国
制造商(研发单位):
太空探索技术公司
制造商所在国:
美国
使用方式:
暂无
卫星简介
星链(Starlink)计划是由太空探索技术公司(SpaceX)提出的一个巨型低轨卫星互联网星座项目,计划在2019年至2024年间在太空搭建由约1.2万颗卫星组成的“星链”网络,其中1584颗将部署在地球上空550千米处的近地轨道,并从2020年开始工作。该卫星仍在工作。
2D轨道图
3D轨道图
轨道高度分析图
轨道倾角分析图
轨道综合分析图
查看轨道综合分析图